SP9KB-13 Weather Reports


Display with metric or nautical units.
time (UTC)temp
F
wind
direction
speed
MPH
gust
MPH
rain 1hr
in
rain 24hr
in
rain mn
in
humidity
%
barometer
mb
20260504201935 59 229 2.0 2.0 0.00 0.00 0.00 45 996.3
20260504201434 60 226 2.0 2.0 0.00 0.00 0.00 44 996.3
20260504200934 61 230 1.0 2.0 0.00 0.00 0.00 43 996.5
20260504200434 63 229 4.0 4.0 0.00 0.00 0.00 39 996.3
20260504195932 62 225 2.0 3.0 0.00 0.00 0.00 40 996.3
20260504195432 63 222 3.0 4.0 0.00 0.00 0.00 39 996.2
20260504194931 63 232 2.0 3.0 0.00 0.00 0.00 38 996.1
20260504194430 62 235 2.0 3.0 0.00 0.00 0.00 39 996.5
20260504193930 63 216 4.0 5.0 0.00 0.00 0.00 38 996.2
20260504193428 63 232 3.0 4.0 0.00 0.00 0.00 39 996.1
20260504192928 63 227 3.0 4.0 0.00 0.00 0.00 39 996.0
20260504192427 63 263 3.0 4.0 0.00 0.00 0.00 39 996.1
20260504191926 63 208 3.0 4.0 0.00 0.00 0.00 38 996.0
20260504191426 63 230 2.0 2.0 0.00 0.00 0.00 39 996.1
20260504190925 63 234 4.0 5.0 0.00 0.00 0.00 39 996.0
20260504190425 63 223 2.0 3.0 0.00 0.00 0.00 39 995.8
20260504185924 63 226 3.0 4.0 0.00 0.00 0.00 40 996.2
20260504185424 62 231 3.0 4.0 0.00 0.00 0.00 41 996.0
20260504184923 63 232 4.0 5.0 0.00 0.00 0.00 40 996.0
20260504184422 64 248 3.0 4.0 0.00 0.00 0.00 39 996.0
20260504183921 64 248 3.0 3.0 0.00 0.00 0.00 41 996.0
20260504183421 63 243 2.0 3.0 0.00 0.00 0.00 39 996.0
20260504182920 64 231 2.0 2.0 0.00 0.00 0.00 39 996.0
20260504182420 64 223 2.0 3.0 0.00 0.00 0.00 40 996.0
20260504181919 64 231 2.0 3.0 0.00 0.00 0.00 38 995.9
20260504181419 65 229 2.0 3.0 0.00 0.00 0.00 37 995.8
20260504180918 65 228 1.0 2.0 0.00 0.00 0.00 37 995.7
20260504180418 65 236 2.0 3.0 0.00 0.00 0.00 37 995.6
20260504175917 66 219 2.0 2.0 0.00 0.00 0.00 37 995.9
20260504175416 66 230 3.0 5.0 0.00 0.00 0.00 36 995.7
20260504174916 66 200 0.0 1.0 0.00 0.00 0.00 37 995.6
20260504174415 66 223 4.0 5.0 0.00 0.00 0.00 35 995.6
20260504173915 66 229 4.0 4.0 0.00 0.00 0.00 35 995.9
20260504173414 66 223 0.0 1.0 0.00 0.00 0.00 35 995.8
20260504172914 67 233 3.0 4.0 0.00 0.00 0.00 34 995.6
20260504172413 67 142 1.0 1.0 0.00 0.00 0.00 35 995.6
20260504171913 68 234 4.0 5.0 0.00 0.00 0.00 33 995.5
20260504171412 68 221 2.0 3.0 0.00 0.00 0.00 32 995.4
20260504170911 68 219 1.0 2.0 0.00 0.00 0.00 32 995.2
20260504170411 69 224 1.0 3.0 0.00 0.00 0.00 33 995.5
20260504160405 74 95 0.0 1.0 0.00 0.00 0.00 28 995.4
20260504150858 76 238 1.0 2.0 0.00 0.00 0.00 25 995.6
20260504150358 77 140 4.0 7.0 0.00 0.00 0.00 24 995.8
20260504140850 77 156 2.0 3.0 0.00 0.00 0.00 26 996.0
20260504140349 78 118 2.0 4.0 0.00 0.00 0.00 26 996.1
20260504130338 78 198 2.0 3.0 0.00 0.00 0.00 28 996.7
20260504110324 74 219 4.0 7.0 0.00 0.00 0.00 34 997.7
20260504100316 71 235 5.0 7.0 0.00 0.00 0.00 36 998.5
20260504081804 66 121 3.0 4.0 0.00 0.00 0.00 43 999.6
20260504081303 66 212 0.0 1.0 0.00 0.00 0.00 44 999.6
20260504080803 65 231 2.0 3.0 0.00 0.00 0.00 44 999.5
20260504080302 65 237 4.0 5.0 0.00 0.00 0.00 43 999.6
20260504070255 62 136 1.0 1.0 0.00 0.00 0.00 47 999.4
20260504060247 59 104 0.0 1.0 0.00 0.00 0.00 53 999.3
20260504050736 53 229 0.0 0.0 0.00 0.00 0.00 68 999.3
20260504050236 53 229 0.0 1.0 0.00 0.00 0.00 72 999.2
20260504045735 51 229 0.0 0.0 0.00 0.00 0.00 71 999.5
20260504045235 49 230 0.0 0.0 0.00 0.00 0.00 76 999.4
20260504044734 48 230 0.0 0.0 0.00 0.00 0.00 76 999.4
20260504044234 47 230 0.0 0.0 0.00 0.00 0.00 77 999.6
20260504043733 45 230 0.0 0.0 0.00 0.00 0.00 80 999.5
20260504043233 44 230 0.0 0.0 0.00 0.00 0.00 83 999.2
20260504042732 42 230 0.0 0.0 0.00 0.00 0.00 86 999.4
20260504042231 40 230 0.0 0.0 0.00 0.00 0.00 89 999.4
20260504041731 40 230 0.0 0.0 0.00 0.00 0.00 92 999.4
20260504041231 38 230 0.0 0.0 0.00 0.00 0.00 96 999.5
20260504040730 36 230 0.0 0.0 0.00 0.00 0.00 97 999.3
20260504040229 35 230 0.0 0.0 0.00 0.00 0.00 97 999.5
20260504035729 35 231 1.0 1.0 0.00 0.00 0.00 98 999.3
20260504035228 35 230 1.0 1.0 0.00 0.00 0.00 98 999.3
20260504034728 35 229 0.0 0.0 0.00 0.00 0.00 98 999.3
20260504034227 34 229 0.0 0.0 0.00 0.00 0.00 98 999.3
20260504033727 34 229 0.0 1.0 0.00 0.00 0.00 98 999.5
20260504033226 34 229 0.0 1.0 0.00 0.00 0.00 98 999.4
20260504032726 33 226 1.0 2.0 0.00 0.00 0.00 98 999.4
20260504032225 33 228 1.0 1.0 0.00 0.00 0.00 98 999.5
20260504031724 33 223 1.0 1.0 0.00 0.00 0.00 98 999.3
20260504031224 33 226 0.0 0.0 0.00 0.00 0.00 98 999.5
20260504030723 33 225 0.0 0.0 0.00 0.00 0.00 98 999.4
20260504030223 33 225 0.0 0.0 0.00 0.00 0.00 98 999.5
20260504025722 33 225 0.0 0.0 0.00 0.00 0.00 98 999.4
20260504025222 32 217 0.0 0.0 0.00 0.00 0.00 98 999.5
20260504024721 32 115 0.0 0.0 0.00 0.00 0.00 98 999.2
20260504024221 32 214 1.0 1.0 0.00 0.00 0.00 98 999.4
20260504023720 32 224 1.0 1.0 0.00 0.00 0.00 98 999.5
20260504023220 32 230 0.0 0.0 0.00 0.00 0.00 98 999.3
20260504022719 32 231 0.0 0.0 0.00 0.00 0.00 97 999.4
20260504022219 32 231 0.0 0.0 0.00 0.00 0.00 97 999.4
20260504021718 32 231 0.0 0.0 0.00 0.00 0.00 97 999.3
20260504021218 32 231 0.0 0.0 0.00 0.00 0.00 97 999.3
20260504020717 32 231 0.0 0.0 0.00 0.00 0.00 97 999.2
20260504020216 33 231 0.0 0.0 0.00 0.00 0.00 97 999.3
20260504015716 33 231 0.0 0.0 0.00 0.00 0.00 97 999.3
20260504015216 33 231 0.0 0.0 0.00 0.00 0.00 97 999.3
20260504014715 33 231 0.0 0.0 0.00 0.00 0.00 97 999.1
20260504014214 33 231 0.0 1.0 0.00 0.00 0.00 97 999.4
20260504013714 33 231 0.0 0.0 0.00 0.00 0.00 97 999.3
20260504013213 33 231 0.0 0.0 0.00 0.00 0.00 97 999.3
20260504012713 33 231 0.0 0.0 0.00 0.00 0.00 96 999.4
20260504012212 33 231 0.0 1.0 0.00 0.00 0.00 96 999.4
20260504011712 33 231 0.0 0.0 0.00 0.00 0.00 96 999.5
20260504011212 34 231 0.0 0.0 0.00 0.00 0.00 96 999.4
20260504010711 33 231 0.0 0.0 0.00 0.00 0.00 96 999.4
20260504010210 33 231 0.0 0.0 0.00 0.00 0.00 96 999.4
20260504005710 34 231 0.0 0.0 0.00 0.00 0.00 96 999.4
20260504005209 34 231 0.0 0.0 0.00 0.00 0.00 96 999.4
20260504004709 33 231 0.0 0.0 0.00 0.00 0.00 96 999.5
20260504004208 33 231 0.0 0.0 0.00 0.00 0.00 96 999.4
20260504003708 34 231 0.0 0.0 0.00 0.00 0.00 96 999.6
20260504003207 34 231 0.0 0.0 0.00 0.00 0.00 96 999.4
20260504002707 33 231 0.0 0.0 0.00 0.00 0.00 95 999.5
20260504002206 34 231 0.0 0.0 0.00 0.00 0.00 95 999.5
20260504001706 34 231 0.0 0.0 0.00 0.00 0.00 95 999.6
20260504001205 34 231 0.0 0.0 0.00 0.00 0.00 94 999.5
20260504000705 34 231 0.0 0.0 0.00 0.00 0.00 94 999.6
20260504000204 35 231 0.0 0.0 0.00 0.00 0.00 94 999.6
20260503235703 35 231 0.0 0.0 0.00 0.00 0.00 94 999.6
20260503235203 35 231 0.0 0.0 0.00 0.00 0.00 94 999.5
20260503234702 35 231 0.0 0.0 0.00 0.00 0.00 94 999.6
20260503234202 35 231 0.0 0.0 0.00 0.00 0.00 94 999.6
20260503233701 35 231 0.0 0.0 0.00 0.00 0.00 94 999.6
20260503233201 35 231 0.0 0.0 0.00 0.00 0.00 94 999.5
20260503232700 35 231 0.0 0.0 0.00 0.00 0.00 94 999.5
20260503232159 35 231 0.0 0.0 0.00 0.00 0.00 93 999.6
20260503231659 35 231 0.0 0.0 0.00 0.00 0.00 92 999.6
20260503231159 36 231 0.0 0.0 0.00 0.00 0.00 92 999.4
20260503230658 36 231 0.0 0.0 0.00 0.00 0.00 92 999.5
20260503230157 36 231 0.0 0.0 0.00 0.00 0.00 91 999.5
20260503225657 37 231 0.0 0.0 0.00 0.00 0.00 91 999.5
20260503225156 37 231 0.0 0.0 0.00 0.00 0.00 91 999.4
20260503224656 37 231 0.0 0.0 0.00 0.00 0.00 91 999.6
20260503224156 37 231 0.0 0.0 0.00 0.00 0.00 91 999.5
20260503223655 37 231 0.0 0.0 0.00 0.00 0.00 91 999.5
20260503223154 37 231 0.0 0.0 0.00 0.00 0.00 90 999.6
20260503222654 38 231 0.0 0.0 0.00 0.00 0.00 89 999.7
20260503222153 38 231 0.0 0.0 0.00 0.00 0.00 90 999.7
20260503221653 38 231 0.0 0.0 0.00 0.00 0.00 90 999.5
20260503221152 38 231 0.0 0.0 0.00 0.00 0.00 90 999.6
20260503220652 38 231 0.0 0.0 0.00 0.00 0.00 89 999.6
20260503220151 38 231 0.0 0.0 0.00 0.00 0.00 88 999.6
20260503215651 39 231 0.0 0.0 0.00 0.00 0.00 87 999.5
20260503215150 40 231 0.0 0.0 0.00 0.00 0.00 87 999.5
20260503214650 39 231 0.0 0.0 0.00 0.00 0.00 87 999.5
20260503214149 40 231 0.0 0.0 0.00 0.00 0.00 86 999.3
20260503213648 40 231 0.0 0.0 0.00 0.00 0.00 83 999.4
20260503213148 41 231 0.0 0.0 0.00 0.00 0.00 84 999.3
20260503212647 41 231 0.0 1.0 0.00 0.00 0.00 84 999.4
20260503212147 41 231 0.0 0.0 0.00 0.00 0.00 84 999.4
20260503211646 41 231 1.0 1.0 0.00 0.00 0.00 83 999.3
20260503211145 41 231 1.0 2.0 0.00 0.00 0.00 84 999.4
20260503210645 40 231 1.0 1.0 0.00 0.00 0.00 84 999.4
20260503210144 42 231 0.0 0.0 0.00 0.00 0.00 82 999.5
20260503205644 41 230 1.0 1.0 0.00 0.00 0.00 82 999.4
20260503205143 41 230 2.0 2.0 0.00 0.00 0.00 83 999.2
20260503204643 42 230 0.0 0.0 0.00 0.00 0.00 81 999.4
20260503204142 42 230 0.0 0.0 0.00 0.00 0.00 82 999.5
20260503203642 43 230 0.0 0.0 0.00 0.00 0.00 81 999.3
20260503203141 43 230 0.0 0.0 0.00 0.00 0.00 79 999.2
20260503202641 44 230 0.0 0.0 0.00 0.00 0.00 78 999.3